パンスターズ彗星

C/2024 X4 ( PanSTARRS )

English version
Home page
Updated on December 28, 2024

---------------------------------------------------------------------

・ プロフィール

発見日 2024年12月8日
発見光度 21.3等
発見者 Pan-STARRS 1 telescope (Haleakala)

・ 軌道要素

Epoch 2024 Oct. 17.0 TT = JDT 2460600.5                                         
T 2025 Sept. 1.82605 TT                                 Veres                   
q   3.6051833            (2000.0)            P               Q                  
n   0.03089334     Peri.  153.27261     +0.53435356     -0.63466104             
a  10.0591090      Node   258.94069     +0.63737271     +0.73634901             
e   0.6416001      Incl.   34.66933     +0.55517772     -0.23451117             
P  31.9                                                                         
From 32 observations 2024 Sept. 30-Dec. 25, mean residual 0".4.                 

・ 光度変化

        m1 = 12.0 + 5 logΔ + 10.0 log r

---------------------------------------------------------------------

軌道要素はM.P.E.C. 2024-Y146に掲載されたものです。
光度グラフはComet for Windowsで作成したものです。

---------------------------------------------------------------------

Copyright(C) Seiichi Yoshida (comet@aerith.net). All rights reserved.